This is the latest recevied weather packets stored in our database for station/object KC1TWD. If no packets are shown the sender has not sent any weather packets the latest 10 day(s).
| Time | Temp. | Humidity | Pressure | Rain* | Wind** | Luminosity | Snow |
|---|---|---|---|---|---|---|---|
| 1777842571 | 10.56° C | 41% | 1006.9 hPa | 0 mm | - | - | - |
| 1777842268 | 10.56° C | 42% | 1006.9 hPa | 0 mm | - | - | - |
| 1777841962 | 10.56° C | 41% | 1006.7 hPa | 0 mm | - | - | - |
| 1777841660 | 10.56° C | 42% | 1006.8 hPa | 0 mm | - | - | - |
| 1777841356 | 10.56° C | 40% | 1006.9 hPa | 0 mm | - | - | - |
| 1777841054 | 10.56° C | 41% | 1006.7 hPa | 0 mm | - | - | - |
| 1777840750 | 10.56° C | 42% | 1006.6 hPa | 0 mm | - | - | - |
| 1777840448 | 10.56° C | 43% | 1006.6 hPa | 0 mm | - | - | - |
| 1777840144 | 10.56° C | 42% | 1006.3 hPa | 0 mm | - | - | - |
| 1777839843 | 10.56° C | 42% | 1006.6 hPa | 0 mm | - | - | - |
| 1777839541 | 10.56° C | 40% | 1006.6 hPa | 0 mm | - | - | - |
| 1777839237 | 11.11° C | 42% | 1006.6 hPa | 0 mm | - | - | - |
| 1777838935 | 11.11° C | 41% | 1006.5 hPa | 0 mm | - | - | - |
| 1777838631 | 10.56° C | 42% | 1006.6 hPa | 0 mm | - | - | - |
| 1777838328 | 10.56° C | 39% | 1006.5 hPa | 0 mm | - | - | - |
| 1777838024 | 10.56° C | 40% | 1006.6 hPa | 0 mm | - | - | - |
| 1777837722 | 11.67° C | 39% | 1006.6 hPa | 0 mm | - | - | - |
| 1777837418 | 11.11° C | 41% | 1006.4 hPa | 0 mm | - | - | - |
| 1777837114 | 10.56° C | 42% | 1006.4 hPa | 0 mm | - | - | - |
| 1777836810 | 11.11° C | 40% | 1006.3 hPa | 0 mm | - | - | - |
| 1777836506 | 11.11° C | 40% | 1006.5 hPa | 0 mm | - | - | - |
| 1777836202 | 11.11° C | 41% | 1006.4 hPa | 0 mm | - | - | - |
| 1777835898 | 10.56° C | 44% | 1006.4 hPa | 0 mm | - | - | - |
| 1777835595 | 10.56° C | 43% | 1006.4 hPa | 0 mm | - | - | - |
| 1777835292 | 10.56° C | 42% | 1006.4 hPa | 0 mm | - | - | - |
* Rain latest hour (hover to see other rain measurements)
** Current wind speed in m/s (hover to see current wind gust speed)